Wind_Speed
5 6 6 5 5 5 4 4 3 3 3 3 3 3 3 3 4 5 6 7 8 10 10 11 12 12 12 12 12 13 13 13 13 14 15 15 16 16 17 18 19 19 19 19 19 19 20 20 21 22 23 23 24 25 25 26 26 27 27 29 30 31 31 31 29 27 25 24 24 25 26 27 28 28 29 29 30 30 30 30 29 28 27 26 28
3 4 5 5 5 6 5 5 4 4 3 4 4 4 4 4 4 5 7 8 8 9 10 11 11 12 12 12 12 12 13 13 13 14 15 16 16 17 18 19 20 20 20 21 21 21 21 22 22 23 24 25 25 26 27 27 28 28 29 29 30 31 32 32 31 29 27 25 24 23 24 26 27 28 29 30 31 31 31 30 30 30 29 28 28
1 2 4 5 5 5 5 4 4 4 4 4 4 4 4 4 5 5 6 7 7 8 9 10 11 12 13 13 13 13 13 14 15 15 16 17 17 17 18 19 20 21 21 22 22 23 23 24 25 25 26 27 27 27 28 29 30 30 30 31 31 32 32 33 32 31 30 27 25 23 23 24 25 26 27 29 31 32 32 31 31 30 31 31 29
1 0 2 4 5 5 5 4 4 3 3 4 4 3 3 4 4 5 5 5 6 7 8 10 11 12 13 14 14 15 15 15 16 16 17 18 18 17 18 19 19 20 21 22 23 24 24 25 26 27 27 28 28 28 29 30 31 31 32 32 32 33 33 33 33 33 32 30 28 25 22 21 23 25 27 30 32 33 33 33 32 31 31 32 30
4 2 1 2 4 4 4 4 4 3 2 2 2 2 2 3 4 4 5 6 7 8 9 10 11 12 13 14 14 15 15 16 16 17 17 18 18 18 18 19 19 20 22 23 24 24 25 26 26 27 28 29 29 30 30 31 32 32 33 33 33 33 34 35 35 34 33 33 31 28 25 22 21 24 26 29 32 33 34 34 34 32 31 31 31
7 5 4 3 3 3 3 3 3 2 1 1 2 2 3 3 4 5 7 8 9 10 11 12 12 13 13 14 14 15 16 16 17 18 19 20 20 20 20 21 21 21 22 23 24 25 25 26 27 28 29 30 31 31 32 32 33 34 34 34 34 34 35 36 36 36 35 35 33 31 29 26 23 23 24 26 30 33 35 35 35 35 32 31 32
10 9 8 6 4 3 3 4 4 3 3 3 4 5 5 5 6 7 8 9 11 11 12 13 13 13 14 14 14 15 15 16 17 19 20 22 22 23 23 23 24 24 25 25 26 27 27 28 28 29 30 31 32 33 33 34 34 35 35 35 35 35 36 36 37 37 37 36 36 34 32 30 27 25 24 24 26 30 34 35 35 36 35 34 34
13 13 11 10 8 6 5 5 5 5 5 6 6 7 7 8 8 9 10 11 12 13 14 14 14 14 14 14 15 15 16 17 18 19 20 22 22 23 24 24 25 25 26 27 27 29 29 30 30 30 31 32 33 34 34 35 36 36 37 37 37 36 37 37 38 38 38 37 37 36 34 33 31 28 27 26 25 27 30 33 35 36 37 37 37
14 14 14 13 12 10 8 7 7 7 7 7 8 8 9 10 11 12 12 13 14 15 15 15 15 15 15 15 16 16 17 18 18 19 20 21 21 22 22 23 24 25 25 26 27 28 29 30 31 31 31 32 33 34 35 36 37 37 38 39 38 38 38 38 39 39 39 38 37 37 36 35 34 31 29 28 27 26 28 31 33 36 37 37 39
13 15 16 15 13 13 13 10 10 10 10 10 11 11 11 13 13 14 15 16 16 17 17 17 17 17 17 17 17 17 18 19 19 20 21 22 22 22 23 23 24 25 26 27 27 28 29 30 31 31 32 33 33 34 35 36 37 38 39 40 40 40 40 40 40 41 41 41 40 38 37 37 36 34 32 30 29 28 28 30 32 34 35 36 39
12 14 15 15 14 15 16 15 14 13 13 13 14 14 14 15 16 17 17 18 19 19 19 19 19 19 19 18 18 18 19 20 20 21 22 23 24 24 25 25 25 26 27 28 29 30 30 31 31 32 32 33 33 34 35 36 38 39 39 40 40 41 42 42 42 42 42 42 42 40 38 38 37 36 34 31 30 29 28 29 32 33 33 33 38
11 13 14 15 15 16 17 17 16 17 17 17 17 17 17 18 18 19 20 20 21 22 21 21 20 20 20 19 19 20 20 21 21 22 23 24 25 26 26 26 26 27 28 29 30 30 31 32 32 33 33 33 34 34 35 36 38 39 40 40 41 42 43 43 43 43 43 43 43 42 40 39 38 36 36 34 31 29 29 29 32 33 32 31 35
12 14 15 16 15 17 19 19 18 19 21 20 20 20 20 21 21 21 21 22 23 24 23 23 22 21 21 20 20 21 22 23 23 23 24 25 27 28 28 28 27 28 28 29 30 31 32 33 34 34 34 34 35 35 36 37 38 40 41 41 42 43 44 44 44 44 44 44 44 43 41 40 39 38 37 36 33 31 30 30 32 34 33 32 34
15 16 18 19 17 17 19 19 19 20 22 21 21 22 23 24 24 23 24 24 25 25 25 24 23 22 22 21 22 22 22 23 24 25 26 27 28 29 29 29 28 29 29 30 31 32 33 34 35 35 35 35 36 36 37 38 39 40 41 42 43 44 45 45 45 46 46 46 45 44 42 41 40 39 37 37 36 34 32 32 32 34 34 33 34
18 17 19 19 18 17 18 19 19 20 21 21 21 22 24 25 25 24 24 24 25 26 25 25 24 23 22 22 22 22 23 24 25 26 27 28 29 30 30 30 30 30 30 31 32 33 34 34 35 36 36 36 36 37 38 39 40 41 42 43 44 45 46 46 46 47 48 47 46 44 42 41 40 39 38 38 38 36 35 34 33 34 35 34 35
20 18 18 19 18 17 18 19 18 19 20 19 20 22 23 24 24 23 24 24 24 24 25 24 23 23 23 23 23 23 24 25 26 27 28 29 30 31 31 31 31 31 31 32 32 33 34 35 35 36 36 37 37 38 39 40 41 42 42 44 45 46 47 47 48 48 49 49 47 45 42 40 39 39 39 39 39 38 37 36 35 36 36 36 35
22 20 18 19 19 18 18 18 19 20 19 19 20 22 23 23 22 22 23 23 23 24 25 25 24 24 24 24 23 23 24 25 26 27 29 30 31 31 31 31 31 31 31 32 33 34 35 35 36 37 37 37 38 39 40 41 42 43 43 44 46 47 47 48 48 49 50 50 48 45 41 38 38 38 39 39 39 38 38 38 37 38 38 38 37
24 22 19 18 18 18 19 20 20 20 19 19 20 22 22 22 21 21 23 23 23 25 26 27 26 25 25 25 24 24 25 25 26 28 29 30 31 31 31 31 31 31 31 32 33 34 35 35 36 37 38 38 39 39 40 41 42 43 44 45 46 46 47 48 49 49 50 49 47 44 40 37 37 38 39 38 38 38 39 39 39 38 39 39 39
25 23 21 19 18 17 20 22 21 19 19 20 21 21 22 21 21 21 23 24 23 25 27 28 27 26 25 25 25 25 25 25 26 28 29 30 31 31 30 30 30 31 32 32 33 34 34 35 37 38 39 39 40 40 40 41 43 44 45 46 46 46 47 48 49 50 49 47 45 42 39 36 37 37 37 37 37 37 38 39 39 39 39 40 40
24 25 24 21 19 18 20 22 20 19 20 20 20 21 21 21 21 21 23 24 25 26 27 28 27 26 25 26 26 25 24 25 27 28 29 30 31 31 30 30 30 31 32 33 34 34 35 36 38 39 40 40 41 41 41 42 43 44 45 46 46 47 47 48 49 49 48 46 43 40 37 36 36 36 36 37 37 38 38 39 39 39 40 40 40
23 24 23 20 17 17 18 20 19 19 20 21 21 20 21 22 22 22 23 25 26 27 28 28 27 26 25 26 27 26 25 27 28 29 30 32 32 31 31 30 30 31 32 33 34 35 36 38 39 40 40 40 41 41 41 42 43 44 45 46 46 47 47 48 49 48 46 44 41 39 36 35 34 34 36 38 37 37 38 39 40 39 40 40 40
25 23 21 19 17 16 18 19 19 20 20 21 21 22 22 22 23 24 24 25 26 27 29 29 27 26 25 26 26 27 28 29 30 31 32 32 32 32 32 30 30 31 31 32 34 35 37 38 39 40 40 40 40 41 42 42 43 44 45 45 46 47 47 47 48 46 43 40 38 37 35 33 33 35 37 38 36 36 37 38 39 39 39 40 41
26 22 20 19 17 17 19 20 21 21 21 22 23 24 25 23 24 25 25 26 27 27 29 28 28 27 26 26 26 27 29 30 31 33 34 33 32 32 32 31 30 31 31 32 33 35 36 38 39 40 41 42 41 41 42 43 43 44 45 45 46 47 47 46 46 43 40 37 36 35 34 34 34 36 37 37 35 34 35 37 38 38 39 40 41
27 23 20 19 17 18 20 21 23 22 22 24 25 26 27 26 26 26 26 27 26 26 28 29 29 27 26 26 26 27 30 31 33 34 34 33 33 32 31 31 31 31 32 33 34 36 38 40 41 40 40 41 41 42 42 43 43 43 44 45 45 46 46 45 43 40 36 35 36 36 35 34 34 34 35 35 34 33 34 35 36 37 38 38 40
29 26 21 19 18 19 21 23 24 24 25 26 26 28 29 28 27 27 27 27 26 26 27 28 29 28 27 28 27 28 30 32 33 35 35 34 33 32 32 33 33 33 34 35 36 38 40 41 41 41 41 42 42 42 43 43 43 43 44 44 45 45 45 43 40 37 35 35 36 36 35 34 33 33 33 34 33 32 33 33 34 35 37 37 38
28 26 22 20 20 21 22 24 25 26 27 27 28 29 30 29 28 26 26 26 26 26 26 27 28 28 28 29 28 29 31 33 34 35 35 34 33 33 33 34 34 35 36 37 38 40 41 42 43 43 44 44 43 43 43 43 43 43 44 44 44 44 44 42 39 37 36 36 35 35 35 34 34 33 33 33 32 32 32 32 33 35 36 36 36
27 27 25 21 21 22 23 24 25 26 27 27 28 28 29 30 29 27 26 26 26 26 26 28 29 27 27 28 29 31 33 34 35 35 35 34 34 34 34 34 34 36 37 38 39 41 43 43 44 44 44 44 43 43 42 42 42 43 43 43 43 43 42 40 38 37 36 35 34 34 33 34 34 34 34 33 32 31 32 33 34 35 35 35 35
24 27 28 24 22 23 24 25 25 26 26 27 28 28 28 30 31 29 26 26 26 26 27 28 28 25 24 26 28 31 33 34 35 35 35 35 35 34 33 34 35 36 38 39 41 42 43 44 44 44 44 43 43 42 42 42 42 42 42 41 41 41 40 38 36 35 34 33 32 32 32 33 34 34 34 34 33 32 32 33 35 36 36 36 35
23 25 28 27 25 25 25 26 27 27 26 27 28 29 29 30 31 30 28 27 27 26 26 28 26 24 24 26 29 31 33 34 34 35 36 36 35 34 34 35 36 37 39 40 42 43 44 44 44 44 44 43 43 42 42 42 41 41 41 40 40 40 38 36 35 34 33 32 31 31 31 32 33 33 33 34 33 33 33 34 36 37 38 38 37
27 27 28 29 29 28 27 27 28 28 28 28 29 30 31 30 30 30 30 29 27 25 26 27 26 24 26 29 30 31 33 34 35 36 36 36 35 35 35 36 36 38 40 42 43 44 44 45 45 45 44 43 43 42 41 41 40 40 40 39 40 39 37 35 34 32 31 31 31 31 31 31 32 32 32 33 33 33 33 34 36 38 39 39 38
30 29 29 30 32 33 30 27 27 28 29 30 31 31 31 31 30 30 30 30 28 26 26 27 26 26 28 30 31 32 33 34 35 36 36 36 36 36 36 37 38 39 41 43 44 45 45 46 46 45 44 43 42 42 40 39 40 39 39 39 39 38 35 34 33 31 29 30 30 31 30 31 31 32 32 32 32 32 33 34 36 38 40 41 41
33 32 32 32 33 33 32 28 27 28 28 29 30 29 30 30 30 30 30 29 28 27 27 28 28 28 29 31 32 33 34 35 36 36 37 37 38 38 38 39 40 41 42 44 46 46 46 46 46 45 44 42 42 41 39 39 39 39 38 39 39 37 34 33 33 30 29 29 30 30 31 31 32 32 32 32 31 32 33 34 36 38 40 42 42
36 36 35 33 32 32 33 30 28 28 27 27 27 27 28 29 29 30 29 28 28 28 28 29 29 29 30 32 33 34 35 36 37 38 38 39 40 40 40 41 42 42 43 45 47 47 46 46 46 45 43 42 42 41 39 38 38 38 37 38 38 35 33 32 32 31 30 29 30 30 31 32 33 33 32 32 31 31 32 34 36 37 39 41 42
37 37 37 33 31 31 32 31 30 29 28 26 25 26 27 28 28 28 27 26 27 27 28 30 30 30 32 33 34 35 36 37 38 39 40 41 42 42 42 43 44 45 44 45 46 47 47 46 46 46 43 42 42 41 38 38 37 36 36 37 36 34 32 32 31 31 31 31 30 30 31 32 33 33 33 32 31 31 31 33 35 37 38 39 38
35 36 37 35 31 31 32 32 31 30 29 27 26 27 29 29 28 28 27 27 27 26 28 30 31 31 32 33 35 36 37 38 40 40 41 43 43 44 44 45 46 47 46 45 45 47 48 47 47 46 44 41 40 39 37 37 37 35 34 35 35 33 32 31 30 30 31 32 32 31 31 31 32 33 32 32 31 31 31 32 33 34 35 34 33
35 37 37 36 33 32 32 32 32 30 29 28 28 30 30 29 28 28 28 28 28 28 29 31 32 33 33 34 36 37 38 39 40 41 43 44 45 46 47 48 48 48 47 45 44 46 48 48 46 45 43 40 39 38 37 37 37 34 32 33 34 34 32 30 30 30 31 32 33 32 31 31 32 32 32 31 31 31 31 31 32 32 32 32 32
37 38 37 35 33 32 32 33 32 31 30 30 30 31 30 28 29 29 30 29 30 30 31 32 33 34 34 35 36 38 39 40 41 42 43 45 47 49 49 50 50 50 48 46 45 46 47 47 45 44 42 40 38 38 36 36 36 33 31 32 34 34 32 31 30 30 31 32 33 33 31 31 31 31 31 31 32 32 32 32 31 31 31 33 33
36 36 34 33 33 33 33 33 33 33 32 32 32 32 30 28 29 30 31 31 31 32 33 33 33 33 34 36 37 38 39 40 41 42 44 47 49 50 51 51 51 51 50 47 45 44 44 45 43 43 42 40 37 36 35 35 35 32 30 32 34 33 33 32 31 30 31 32 33 33 32 32 32 32 31 32 32 32 32 33 32 31 33 34 33
33 32 32 31 32 33 33 33 34 35 34 33 33 32 30 30 31 31 31 32 32 33 33 33 33 34 35 36 37 38 39 40 41 42 45 48 50 51 52 52 52 52 50 47 44 42 42 43 42 42 41 39 36 34 34 35 35 32 32 34 35 33 33 33 31 30 30 31 32 34 34 33 33 32 31 32 32 31 33 33 32 31 33 34 33
31 31 31 32 33 34 35 34 35 35 35 34 33 32 31 32 32 32 32 32 32 33 33 32 33 34 35 36 37 38 39 38 39 43 48 51 51 51 53 54 52 50 48 47 45 43 42 42 41 40 39 38 36 35 34 36 35 33 34 36 36 33 32 32 31 30 29 30 32 34 34 34 33 32 31 32 31 30 32 33 32 31 32 32 32
31 32 32 32 35 37 38 38 38 37 36 35 33 32 32 32 33 33 33 33 33 32 32 32 34 35 36 37 38 38 37 35 38 43 48 49 48 49 51 51 50 49 50 50 46 41 40 40 38 37 37 38 38 37 36 37 36 35 36 37 36 34 32 32 31 30 30 29 31 33 34 34 33 31 31 32 30 30 31 32 32 31 31 32 32
31 32 33 34 37 40 43 43 42 40 38 35 33 33 33 33 34 34 33 33 33 32 33 33 34 35 37 38 38 37 35 34 38 45 48 48 48 49 49 48 48 51 56 56 47 39 37 36 33 33 35 38 39 38 37 37 37 37 37 37 35 34 33 32 31 31 30 30 31 32 33 33 32 31 31 31 30 30 30 31 31 31 31 32 32
31 32 34 36 39 43 46 48 45 41 38 35 33 33 34 34 34 33 33 33 34 33 34 35 35 37 38 38 38 36 34 35 40 46 50 52 52 52 51 50 50 51 51 50 46 41 37 33 33 36 38 39 38 37 36 37 38 38 38 37 35 34 34 32 31 31 31 31 31 31 31 32 32 31 31 30 29 29 30 30 30 30 30 32 32
34 34 35 37 40 43 45 47 46 40 35 34 33 33 33 33 33 33 33 34 34 34 34 35 37 38 39 38 37 36 36 38 41 45 49 52 53 53 54 54 53 50 46 44 46 47 43 38 38 43 43 40 38 37 37 38 39 39 38 36 34 34 34 33 30 30 30 30 30 30 30 31 31 31 30 29 28 28 28 28 28 28 28 30 31
36 37 36 36 39 41 40 40 42 40 35 34 32 31 31 31 31 32 33 33 34 33 33 34 36 37 38 39 39 39 40 42 45 47 49 51 52 53 55 54 53 51 49 46 44 45 45 45 46 46 44 41 39 38 38 39 39 39 38 36 35 35 35 33 30 29 30 30 29 29 30 30 30 30 29 28 27 27 27 27 27 27 27 28 30
36 37 37 36 38 40 38 34 35 37 33 31 29 29 31 32 32 32 33 33 32 32 33 34 36 38 40 41 42 43 44 46 49 50 50 50 50 52 53 53 54 53 52 49 46 45 50 55 54 48 43 40 39 38 38 38 38 38 37 36 36 36 36 34 31 30 30 30 29 30 30 30 29 29 28 27 27 27 26 26 26 26 26 27 28
37 37 37 36 37 39 38 33 32 36 34 29 28 29 31 32 33 33 33 32 31 31 33 36 38 39 41 42 44 45 47 50 51 51 50 49 50 51 52 53 54 54 53 53 53 53 56 59 56 48 42 40 39 39 38 36 34 35 35 36 36 36 36 35 33 30 30 30 29 30 30 29 28 27 27 26 26 26 25 25 25 24 24 25 26
38 38 39 39 39 40 40 37 34 41 39 31 28 30 32 33 33 35 37 37 34 33 34 37 39 41 42 44 46 48 50 51 51 50 50 50 50 51 52 53 54 55 55 55 57 57 58 57 54 48 44 41 39 39 38 35 33 32 34 36 37 37 36 35 33 31 30 30 30 30 30 28 27 26 25 25 25 25 24 24 23 22 21 22 24
38 38 39 41 41 41 41 39 35 40 43 39 38 40 42 41 38 39 42 41 37 35 37 40 43 44 45 47 49 51 51 51 50 50 51 52 51 52 52 53 53 54 55 56 57 58 57 56 53 48 44 41 39 40 40 38 35 34 35 35 36 37 37 35 33 31 29 29 29 30 29 27 25 25 24 25 24 23 22 22 21 19 19 20 22
38 38 39 43 44 43 43 41 39 42 47 48 50 52 51 48 43 40 40 39 39 40 43 46 47 48 48 50 52 52 52 52 52 52 52 52 52 52 52 52 53 54 54 54 55 55 55 54 51 47 44 42 41 40 40 39 38 36 35 35 37 38 37 35 33 30 29 29 29 28 27 25 24 24 24 24 24 22 21 20 19 17 17 18 20
40 40 40 42 44 45 45 44 43 44 46 48 52 53 50 46 42 39 40 42 44 46 48 49 49 50 51 52 53 52 52 53 53 53 52 52 52 52 52 53 53 53 53 53 53 53 53 51 48 44 42 41 41 40 39 38 37 36 35 36 37 37 36 34 33 31 29 29 27 26 25 24 24 23 23 23 23 22 20 18 17 16 16 17 18
Wind_Direction
84 83 87 94 93 86 79 73 60 33 13 13 30 41 47 52 38 26 23 21 20 14 9 7 3 359 356 350 345 339 332 329 329 331 332 335 339 338 334 330 331 332 332 331 330 331 332 333 334 334 336 337 337 338 338 339 339 339 339 339 339 339 338 337 336 332 326 319 311 304 295 288 283 278 276 275 275 273 271 269 267 267 264 256 250
79 87 97 103 101 92 81 70 59 46 37 33 38 49 50 42 29 21 22 22 21 18 13 11 8 4 1 356 352 345 337 331 328 328 327 331 338 339 335 332 331 330 329 328 327 328 329 329 329 329 332 333 334 335 335 335 335 335 336 336 336 337 337 336 335 332 328 324 316 308 300 293 286 278 274 274 275 274 272 270 270 269 267 262 253
61 93 110 115 111 104 94 85 73 60 51 50 52 58 53 38 27 19 21 23 20 18 15 12 11 10 7 3 359 355 347 341 337 333 329 330 334 336 334 332 330 328 326 326 326 326 326 326 326 327 328 330 331 332 333 333 332 332 332 333 334 335 334 334 333 332 330 326 321 314 304 296 288 278 273 274 275 274 272 269 268 268 268 266 260
265 140 127 131 127 125 120 114 98 77 57 51 50 51 42 30 22 13 11 13 8 6 5 5 6 6 6 4 3 360 353 347 343 338 333 331 331 331 329 328 328 327 326 326 325 325 325 324 324 324 324 325 327 328 329 330 330 330 330 329 331 332 332 331 331 331 330 326 323 318 309 299 289 280 276 275 275 273 270 269 267 266 266 267 265
276 282 239 160 151 148 145 139 128 111 79 46 30 25 17 5 0 357 351 347 347 348 349 352 354 356 358 358 359 358 354 349 345 340 335 333 333 332 330 329 328 328 327 327 326 325 324 322 321 320 320 322 324 325 326 326 327 327 327 326 327 328 328 329 329 330 329 325 323 319 313 305 293 283 277 275 274 272 268 268 268 266 264 266 265
275 272 272 250 198 174 169 171 169 165 194 274 292 306 315 324 331 334 334 332 332 334 336 340 341 344 347 348 350 350 349 346 343 340 338 337 337 336 335 333 331 330 328 327 326 324 323 321 321 320 320 322 323 323 323 324 324 324 324 323 324 324 325 326 327 328 327 325 322 319 315 309 302 291 281 275 273 272 269 267 267 267 264 261 259
271 269 269 265 255 230 211 211 218 227 242 262 272 282 293 301 311 317 320 322 322 324 326 328 330 333 336 339 342 342 340 339 338 337 337 337 338 337 336 335 332 331 329 327 326 324 323 322 322 321 321 322 322 322 321 321 321 321 321 321 321 322 322 323 324 325 325 324 322 319 315 311 307 300 289 279 272 271 271 268 266 265 263 260 258
270 271 269 267 265 256 242 232 236 244 247 257 267 274 285 292 300 306 310 312 314 314 315 319 321 324 328 331 334 336 336 335 333 332 332 333 334 334 333 332 331 329 327 326 325 323 322 322 322 322 321 321 321 320 320 319 319 319 319 319 319 320 320 321 321 321 322 323 321 318 315 311 308 303 296 288 277 270 271 271 267 264 262 261 260
270 272 272 271 269 267 265 254 250 257 258 260 267 274 283 291 297 302 306 307 307 308 309 311 314 317 322 325 328 332 333 332 331 329 327 326 326 326 326 326 326 325 324 323 322 321 321 321 322 321 321 320 320 319 318 318 317 318 318 318 318 318 319 319 319 319 320 320 320 317 313 310 306 303 299 295 287 275 268 269 269 266 263 261 260
269 272 274 272 270 270 272 270 266 267 270 271 274 279 285 290 296 299 302 304 304 305 305 308 311 314 317 320 323 325 327 328 328 326 325 323 321 320 320 321 322 322 321 321 320 320 320 321 321 321 320 319 318 318 317 317 316 317 317 317 318 318 318 319 319 319 320 320 319 316 312 308 305 302 300 297 292 283 272 267 267 266 265 263 262
270 272 273 274 273 273 272 273 273 272 274 276 278 282 285 287 292 296 299 302 303 303 303 305 308 309 311 314 317 319 321 322 323 324 324 322 320 318 317 318 319 320 320 320 320 321 321 321 320 319 319 318 317 317 316 316 316 316 316 317 317 317 317 318 319 319 320 319 318 316 311 306 303 302 300 297 293 288 279 270 267 266 264 263 263
274 274 274 275 274 273 273 274 274 273 275 276 277 280 283 285 287 290 294 298 300 301 301 302 304 304 305 307 311 314 316 317 320 322 323 322 320 317 315 315 316 317 318 319 320 320 320 319 319 319 318 317 317 316 316 315 315 315 316 316 316 316 317 318 318 319 319 318 316 314 310 305 302 301 299 296 293 288 282 274 269 267 264 260 260
277 280 279 277 274 269 270 272 272 273 275 276 277 278 280 281 282 285 290 294 296 297 297 298 300 300 301 302 306 309 312 315 318 320 321 321 319 316 314 313 313 314 316 317 318 318 319 319 319 319 318 318 317 316 315 315 315 315 315 316 316 316 317 317 317 318 317 316 315 312 309 304 301 300 297 295 292 287 281 276 271 268 266 261 259
284 287 283 278 274 268 267 272 273 273 275 277 278 279 279 280 281 283 288 292 294 294 293 294 296 297 298 299 303 306 310 312 315 317 318 319 317 315 313 311 310 311 313 315 317 317 318 318 318 318 318 317 316 315 315 314 315 315 316 317 317 317 316 317 317 317 317 316 314 311 308 303 299 298 296 293 290 287 282 277 272 269 266 263 259
288 288 288 282 274 269 270 274 276 274 276 280 281 282 282 281 282 284 288 292 295 294 292 292 293 295 296 298 301 304 307 309 312 314 315 315 315 314 312 310 310 310 312 314 316 317 317 317 317 317 317 316 315 315 315 315 315 316 317 317 317 316 316 317 317 318 317 315 313 311 307 301 297 296 294 291 289 286 283 279 273 268 266 264 261
285 287 288 283 278 278 277 276 277 278 280 284 286 286 285 284 283 286 290 294 296 295 293 292 293 294 295 297 300 302 304 307 309 311 312 313 313 313 311 310 308 309 310 313 315 316 316 316 316 316 316 315 315 315 315 316 317 317 317 317 317 317 317 318 318 318 317 315 313 311 306 300 297 296 294 291 288 286 284 280 275 269 265 262 261
288 291 288 282 282 284 282 278 278 281 286 290 291 291 289 286 284 286 291 295 297 297 295 294 294 294 295 296 299 301 303 305 307 308 309 310 312 312 310 308 307 307 309 312 314 315 315 315 315 315 315 315 316 316 316 317 317 317 317 317 317 318 318 318 318 318 316 315 313 311 306 299 297 297 295 292 288 286 284 281 277 272 267 262 259
293 293 289 283 281 280 279 279 279 283 288 289 291 292 291 288 285 285 290 294 296 297 297 296 295 295 296 297 299 300 301 303 306 307 307 309 311 311 309 307 306 306 308 311 313 314 315 315 315 315 316 316 316 317 317 317 317 317 317 317 317 318 318 318 318 318 316 314 313 310 305 299 298 297 295 291 288 285 284 281 278 274 270 266 262
297 294 291 286 281 276 275 278 280 282 283 284 286 288 289 287 284 285 288 291 295 298 298 297 296 296 297 298 300 300 300 302 306 307 308 310 311 310 308 307 306 307 309 311 312 313 314 314 315 316 317 317 318 318 318 317 317 316 316 317 318 318 319 319 318 318 316 314 312 308 303 300 299 297 293 289 287 285 284 282 280 278 273 270 266
295 294 293 289 283 278 276 277 278 279 280 282 283 283 283 282 283 286 289 290 293 297 299 298 296 297 299 301 303 303 300 303 309 311 312 312 311 310 309 309 308 308 309 310 311 312 314 316 317 318 318 318 318 318 318 317 316 317 317 318 319 319 319 319 318 317 315 313 310 306 304 304 301 296 291 289 287 286 284 283 281 280 278 273 269
288 291 292 290 286 280 277 277 279 280 280 281 283 280 277 277 281 287 290 292 293 295 299 298 296 298 301 304 307 306 303 306 311 314 315 314 312 311 310 309 308 308 309 310 312 314 316 319 319 319 319 319 319 318 318 317 317 318 318 319 319 320 321 320 318 317 316 313 310 307 306 306 301 294 290 287 287 286 285 284 283 282 281 278 274
289 288 289 290 286 279 277 278 280 282 280 280 282 281 279 278 281 286 291 293 292 293 296 298 297 298 302 305 307 307 307 310 313 315 316 314 312 311 309 309 308 308 309 312 315 317 318 319 318 318 318 319 319 319 318 318 318 318 319 319 320 321 321 320 318 317 316 315 313 310 307 303 298 292 289 287 288 288 286 284 284 283 283 282 279
290 286 286 289 287 282 279 280 280 280 279 280 282 282 283 283 284 287 290 291 291 292 295 298 298 299 304 306 306 307 309 311 313 314 314 313 312 310 309 308 308 308 309 311 314 316 318 318 319 320 321 321 320 319 318 318 319 319 319 320 320 321 320 320 318 317 317 316 315 313 308 303 297 293 291 290 291 289 287 285 285 285 284 284 283
288 289 290 291 291 289 285 284 283 282 281 282 282 283 284 286 287 287 289 290 292 294 296 297 296 299 304 305 305 308 310 311 312 312 312 312 311 310 308 306 306 306 308 310 313 315 317 319 320 321 321 320 319 319 319 319 320 320 319 320 321 321 320 320 318 316 316 316 314 312 309 305 300 296 293 293 292 290 288 287 286 286 285 284 284
289 290 293 297 299 298 296 294 290 286 285 284 283 284 284 285 287 287 288 290 292 294 296 295 295 299 302 302 305 309 309 310 312 311 311 311 310 308 307 306 306 307 310 312 314 317 318 319 319 319 319 319 320 320 320 320 320 319 319 320 321 320 320 319 317 314 314 315 314 311 309 306 302 299 296 294 293 291 289 289 288 288 287 285 284
289 290 295 301 303 302 302 300 295 288 285 284 283 283 284 286 286 286 288 290 293 295 295 292 294 299 301 302 305 307 308 312 313 311 310 310 308 309 308 309 310 312 314 316 317 318 319 319 318 317 318 319 320 320 320 320 320 319 319 320 320 320 319 318 315 313 313 314 313 310 308 305 303 300 298 296 295 292 291 291 291 290 290 288 286
289 292 297 302 302 302 304 302 296 289 285 284 283 283 285 287 288 288 289 291 293 294 292 291 296 302 302 303 305 305 307 310 311 310 309 308 309 310 311 311 312 314 315 316 316 317 318 318 318 318 318 319 319 320 320 319 318 318 319 320 320 319 318 316 314 312 312 312 311 309 307 305 303 301 300 298 297 296 295 295 295 294 294 292 288
285 291 296 301 302 302 305 304 298 292 288 285 283 283 285 288 289 291 292 292 293 293 293 294 298 300 299 301 305 305 305 307 309 308 307 307 309 311 311 312 314 314 315 315 316 318 318 318 318 318 318 318 319 319 319 318 318 318 318 319 319 318 316 315 313 311 310 309 308 307 306 304 302 301 300 300 299 299 299 298 298 298 298 296 293
279 287 293 298 302 303 305 303 299 295 291 286 284 285 286 287 290 292 292 292 293 295 296 295 294 295 296 300 303 304 305 307 308 306 305 306 309 311 312 314 315 315 315 316 318 318 318 318 317 317 317 318 319 318 318 318 318 317 317 318 318 317 315 313 311 309 308 307 306 306 305 304 303 302 301 301 302 303 302 301 301 301 301 300 298
284 291 295 298 302 303 303 301 298 295 291 287 286 287 288 288 290 292 292 292 294 295 296 295 296 297 298 299 302 304 305 306 305 305 306 307 310 313 314 315 315 314 315 317 318 317 317 316 316 316 316 317 317 317 317 317 317 316 316 317 317 315 313 312 310 308 307 306 305 305 305 305 305 304 304 304 305 307 306 305 305 305 304 304 302
287 292 295 299 302 302 301 297 294 291 289 286 286 287 288 289 290 290 290 291 294 296 297 299 302 302 299 300 303 305 306 306 305 306 307 310 312 313 314 314 314 315 316 317 317 316 315 315 314 315 316 316 316 316 316 317 316 315 315 316 316 315 313 312 310 308 306 305 304 305 305 306 306 305 305 306 308 309 310 309 309 309 308 306 304
288 289 293 297 299 300 300 297 292 288 286 284 285 285 287 287 286 286 288 292 296 300 301 302 302 300 300 303 305 306 306 306 306 308 309 311 312 313 313 313 314 316 316 316 315 314 314 313 313 314 315 315 314 314 315 316 315 314 314 316 316 315 313 311 309 307 305 305 304 305 305 306 306 305 306 308 310 312 313 313 313 312 310 308 306
285 288 291 295 297 297 297 297 294 288 285 283 284 284 284 283 283 286 291 295 296 297 299 300 299 298 301 304 305 306 307 307 308 309 310 310 311 311 312 312 313 315 315 313 312 312 312 312 312 313 314 314 313 313 315 316 314 313 314 315 316 314 311 309 308 306 306 306 305 304 305 305 305 306 307 310 313 316 317 317 315 314 313 311 309
284 288 291 295 296 294 294 295 292 288 286 285 284 282 281 281 285 292 296 295 292 291 293 296 297 298 302 304 306 307 307 307 308 309 309 310 310 311 311 312 312 313 313 312 311 310 311 311 311 312 313 314 313 313 314 315 314 313 313 315 315 313 310 307 306 306 306 306 305 303 304 305 305 306 308 311 315 318 319 318 316 316 316 314 311
285 289 291 294 294 291 291 291 289 287 286 285 283 281 282 285 289 293 292 290 291 292 292 293 296 300 302 304 305 306 306 307 308 308 309 309 310 311 311 311 311 310 310 310 310 309 309 309 310 312 314 314 313 313 313 314 313 312 312 315 315 313 309 306 305 306 306 306 305 303 303 305 305 306 308 311 315 317 317 317 316 317 319 319 315
285 288 290 292 292 289 288 287 286 286 286 284 283 283 284 287 290 290 288 288 292 294 293 295 298 301 303 304 305 305 305 305 306 307 309 309 310 310 310 310 309 308 309 309 309 308 307 307 309 311 312 313 311 309 309 311 312 309 309 314 316 313 309 306 304 304 305 304 303 302 302 304 305 307 309 312 313 314 314 315 316 317 321 323 319
284 285 286 287 287 286 285 285 285 285 285 284 283 283 285 287 288 288 288 290 293 294 294 295 298 300 302 302 302 302 303 304 305 307 308 309 309 309 309 308 307 307 307 307 307 305 304 304 307 309 310 310 308 305 305 310 311 307 305 312 316 313 310 308 304 302 302 302 301 301 301 302 304 307 309 310 311 312 314 315 315 316 319 322 321
282 282 283 284 285 285 285 284 284 285 284 282 281 283 285 286 286 286 288 290 291 291 292 294 296 298 299 298 299 301 303 304 306 307 308 308 308 308 307 307 306 305 306 307 306 304 301 302 305 307 307 308 306 303 305 311 312 303 299 308 315 314 310 309 305 301 300 300 300 301 301 302 303 307 309 309 310 313 313 313 314 316 319 322 321
282 284 286 287 287 286 285 285 285 285 282 279 280 283 284 283 283 284 286 287 287 288 290 293 294 294 295 296 298 301 302 304 305 306 307 306 306 307 306 305 303 302 303 304 303 300 297 299 303 305 306 308 307 304 304 309 310 301 296 304 313 314 310 309 306 302 299 299 300 301 301 302 303 307 308 307 310 313 312 311 314 319 321 322 321
284 287 288 288 287 287 287 287 287 284 280 278 279 280 280 280 282 283 284 283 284 287 289 290 290 292 294 295 297 299 300 302 304 304 303 304 305 306 306 304 302 303 305 306 302 295 292 297 302 304 305 307 306 302 301 305 307 302 297 302 310 312 310 307 306 303 301 301 301 300 301 301 304 307 307 307 310 312 310 310 315 321 322 322 322
284 286 287 288 289 289 289 289 287 283 277 274 275 276 277 279 280 281 281 281 284 287 288 288 290 292 294 293 294 294 295 297 300 302 305 309 310 310 311 309 307 310 313 311 305 296 295 300 303 304 306 307 305 301 300 303 305 303 301 303 307 309 309 307 306 303 303 302 300 299 300 300 303 307 307 307 310 311 309 310 315 320 322 323 324
281 285 287 289 290 291 291 289 285 277 270 268 270 272 274 275 276 277 279 281 285 287 288 289 290 290 290 290 290 290 290 293 300 304 308 312 311 311 313 312 310 313 315 310 302 298 301 307 309 310 310 309 307 303 301 303 305 305 303 303 304 307 309 308 306 304 302 301 298 298 299 300 304 307 307 308 310 311 310 311 315 320 323 324 326
282 285 287 289 291 293 293 288 279 269 262 261 264 267 269 272 274 277 281 284 286 288 288 289 290 288 288 290 291 290 289 292 300 304 306 307 307 307 311 311 310 314 315 308 299 299 303 307 313 315 313 311 309 305 302 304 305 305 303 302 303 306 308 307 305 302 300 299 298 298 299 302 305 307 306 308 310 310 310 311 315 320 324 325 328
287 287 287 290 293 298 299 288 271 259 254 256 260 263 266 271 275 278 283 286 287 289 291 290 290 290 291 293 294 293 291 293 298 302 303 304 305 306 309 309 309 311 312 306 299 299 300 303 310 314 312 310 308 305 303 305 304 302 301 301 302 306 307 305 303 300 298 297 298 299 301 303 305 306 305 306 308 308 309 310 313 319 324 327 330
287 288 290 293 294 299 306 292 267 253 249 250 254 260 266 272 278 280 283 286 287 289 291 291 291 293 294 295 295 293 293 294 298 301 301 301 302 303 304 306 305 306 308 305 300 298 299 302 309 311 310 309 306 302 302 302 300 298 299 300 301 303 304 303 301 298 297 298 298 300 303 304 304 304 303 303 305 307 308 309 312 318 325 330 333
286 288 291 295 294 297 305 296 269 253 246 244 252 266 274 278 282 282 281 282 284 286 289 290 292 294 295 295 294 294 294 296 298 300 300 299 299 300 301 302 302 303 305 303 298 293 293 297 303 308 308 306 303 300 300 298 296 296 298 298 299 301 301 302 301 297 296 297 298 300 303 303 302 301 300 301 303 307 309 309 311 319 326 332 335
287 288 289 292 292 292 298 296 271 252 249 256 268 280 286 287 286 283 279 279 282 287 289 291 292 292 292 292 292 293 294 297 299 300 299 299 299 298 298 299 300 301 301 300 298 295 293 294 299 304 304 302 300 299 298 296 294 295 295 295 297 298 299 301 300 296 295 295 296 300 302 301 301 300 299 299 302 306 309 309 312 319 327 332 338
287 289 289 290 290 289 293 297 277 253 253 269 281 286 295 298 292 286 282 280 282 288 290 290 289 289 289 290 291 292 294 297 298 299 299 299 299 298 299 299 299 300 300 299 299 298 297 296 298 300 300 300 299 297 296 295 295 296 294 293 295 296 297 298 298 295 293 293 295 299 301 300 300 300 299 299 301 305 308 309 312 319 326 333 341
286 289 289 289 290 288 290 296 283 260 258 271 278 281 292 299 295 291 290 287 285 287 289 288 288 288 289 290 293 295 296 297 297 297 298 299 299 299 299 300 300 300 300 299 299 298 297 297 298 299 299 299 296 294 293 293 294 294 292 291 293 294 296 298 297 294 291 291 293 297 299 299 300 301 299 299 301 304 307 308 310 316 326 334 342
285 287 287 286 288 289 288 290 286 273 270 274 273 274 284 293 292 289 290 288 286 287 288 288 289 291 292 293 295 296 297 297 297 298 299 299 300 300 300 300 299 299 298 298 297 297 296 297 298 299 298 295 292 292 292 291 290 290 289 290 293 295 297 298 297 293 288 288 290 292 295 299 301 301 300 299 300 304 306 306 307 313 323 332 339
285 286 285 285 287 289 289 289 288 285 283 281 276 276 283 290 288 285 286 287 287 287 289 290 293 294 294 295 296 296 296 297 298 298 299 300 301 301 301 300 299 299 298 297 297 296 297 297 298 298 296 293 291 291 291 290 289 290 291 293 294 295 297 298 296 290 284 284 285 288 292 297 299 301 301 300 301 304 304 302 304 308 317 326 333
Height
5935 5935 5935 5935 5935 5936 5936 5936 5936 5936 5936 5936 5936 5936 5936 5936 5936 5935 5935 5934 5934 5934 5933 5933 5932 5932 5931 5930 5930 5929 5928 5927 5927 5926 5925 5924 5923 5923 5921 5920 5919 5918 5917 5916 5916 5915 5913 5912 5911 5910 5909 5908 5907 5906 5905 5903 5902 5900 5899 5897 5895 5893 5891 5889 5888 5887 5885 5884 5882 5881 5879 5878 5877 5877 5876 5876 5876 5876 5877 5879 5880 5881 5882 5883 5884
5935 5935 5935 5935 5935 5935 5935 5936 5936 5936 5936 5936 5936 5936 5936 5936 5936 5935 5935 5934 5934 5934 5933 5933 5932 5932 5931 5930 5929 5929 5928 5927 5926 5925 5924 5923 5923 5922 5920 5919 5917 5916 5915 5915 5913 5912 5911 5910 5909 5908 5907 5906 5905 5904 5902 5901 5899 5898 5896 5894 5893 5891 5889 5887 5885 5884 5883 5881 5880 5878 5877 5875 5874 5874 5873 5872 5872 5872 5873 5874 5875 5876 5877 5878 5879
5935 5935 5934 5934 5934 5934 5935 5936 5936 5936 5936 5936 5936 5936 5936 5936 5936 5935 5935 5934 5934 5934 5933 5933 5932 5931 5930 5930 5929 5928 5927 5926 5925 5924 5923 5922 5922 5921 5919 5918 5917 5915 5914 5913 5911 5910 5909 5908 5907 5906 5905 5904 5902 5901 5899 5898 5896 5895 5893 5891 5890 5888 5886 5884 5883 5881 5879 5878 5877 5876 5875 5873 5871 5870 5870 5869 5869 5869 5869 5870 5871 5872 5873 5873 5875
5935 5935 5934 5934 5934 5934 5935 5935 5935 5936 5935 5935 5935 5936 5935 5935 5935 5935 5934 5934 5934 5933 5933 5932 5931 5930 5930 5929 5928 5927 5926 5925 5924 5923 5922 5921 5921 5920 5919 5917 5916 5915 5913 5912 5910 5909 5907 5906 5905 5903 5902 5901 5900 5898 5897 5895 5893 5892 5890 5889 5887 5885 5883 5881 5880 5878 5876 5875 5874 5873 5872 5871 5869 5868 5867 5866 5865 5865 5865 5865 5866 5868 5869 5869 5871
5933 5934 5934 5933 5933 5933 5934 5934 5934 5935 5935 5935 5935 5935 5935 5935 5935 5934 5934 5933 5933 5932 5932 5931 5930 5929 5928 5927 5927 5926 5925 5924 5923 5922 5921 5920 5919 5918 5917 5916 5915 5913 5912 5910 5909 5907 5906 5904 5903 5902 5900 5899 5897 5896 5894 5893 5891 5889 5887 5886 5885 5883 5880 5878 5876 5875 5874 5872 5870 5869 5868 5868 5867 5866 5865 5864 5861 5861 5861 5861 5861 5863 5865 5866 5867
5932 5932 5933 5933 5933 5933 5933 5933 5933 5933 5934 5934 5934 5934 5934 5933 5933 5933 5933 5932 5931 5931 5930 5929 5928 5928 5927 5926 5925 5924 5924 5923 5921 5920 5919 5918 5917 5915 5914 5913 5912 5911 5910 5908 5907 5905 5904 5902 5901 5899 5897 5896 5894 5893 5891 5890 5888 5887 5885 5883 5881 5880 5878 5875 5873 5871 5870 5868 5867 5865 5864 5863 5863 5863 5862 5861 5859 5857 5857 5857 5857 5857 5859 5861 5861
5931 5931 5932 5932 5932 5932 5932 5932 5932 5932 5932 5933 5933 5933 5932 5932 5931 5931 5931 5931 5930 5929 5929 5928 5927 5926 5925 5924 5924 5923 5922 5921 5920 5919 5917 5915 5914 5913 5911 5910 5909 5908 5907 5906 5904 5903 5901 5900 5898 5896 5894 5893 5891 5890 5888 5887 5885 5883 5881 5880 5878 5877 5875 5873 5870 5868 5866 5864 5862 5861 5859 5858 5858 5858 5858 5858 5857 5854 5852 5852 5852 5852 5853 5854 5855
5930 5930 5931 5931 5931 5931 5931 5931 5930 5930 5931 5931 5931 5931 5931 5930 5930 5929 5929 5929 5929 5928 5928 5927 5926 5925 5924 5922 5922 5921 5920 5919 5918 5917 5916 5914 5913 5911 5910 5909 5907 5906 5904 5903 5902 5900 5898 5897 5895 5894 5892 5890 5888 5887 5885 5883 5881 5880 5878 5876 5875 5873 5872 5870 5867 5865 5863 5861 5859 5857 5855 5854 5853 5852 5852 5852 5853 5852 5849 5847 5846 5847 5847 5848 5849
5928 5929 5929 5929 5930 5929 5929 5929 5929 5929 5929 5929 5929 5929 5929 5929 5928 5928 5927 5927 5927 5927 5926 5925 5924 5923 5922 5920 5919 5919 5918 5917 5916 5916 5915 5914 5912 5911 5909 5908 5906 5905 5903 5902 5900 5898 5896 5894 5893 5891 5889 5887 5885 5884 5882 5880 5877 5876 5874 5872 5870 5869 5867 5866 5864 5862 5859 5858 5856 5854 5851 5849 5848 5847 5846 5846 5847 5848 5847 5844 5842 5841 5842 5842 5842
5926 5926 5927 5927 5928 5927 5927 5928 5928 5927 5927 5927 5927 5927 5927 5927 5926 5926 5926 5925 5925 5925 5924 5923 5922 5921 5919 5918 5917 5916 5915 5915 5914 5913 5913 5912 5910 5909 5908 5906 5905 5903 5901 5900 5898 5896 5894 5892 5890 5888 5886 5885 5883 5881 5878 5876 5874 5872 5870 5868 5866 5864 5862 5861 5859 5857 5854 5852 5851 5850 5848 5845 5843 5842 5841 5841 5841 5841 5842 5841 5839 5837 5838 5838 5836
5924 5924 5925 5925 5926 5926 5925 5926 5926 5925 5925 5925 5925 5925 5925 5924 5924 5924 5924 5923 5923 5922 5922 5921 5920 5919 5917 5916 5915 5914 5913 5913 5912 5911 5910 5909 5908 5907 5905 5904 5902 5900 5899 5897 5895 5894 5892 5890 5888 5886 5884 5882 5880 5877 5875 5873 5870 5868 5866 5864 5862 5860 5857 5855 5853 5851 5849 5847 5845 5844 5842 5840 5838 5837 5836 5835 5835 5835 5836 5836 5834 5833 5835 5835 5832
5922 5923 5923 5923 5923 5924 5923 5923 5923 5923 5923 5923 5922 5922 5922 5922 5922 5922 5921 5921 5921 5920 5919 5919 5918 5917 5915 5914 5913 5912 5911 5910 5909 5908 5908 5907 5905 5904 5902 5901 5899 5897 5896 5894 5893 5891 5889 5887 5885 5883 5881 5878 5876 5874 5872 5869 5867 5864 5862 5860 5858 5855 5853 5851 5849 5847 5844 5842 5840 5838 5836 5834 5833 5832 5830 5829 5829 5829 5829 5830 5829 5828 5829 5831 5828
5920 5921 5921 5921 5921 5921 5920 5920 5921 5920 5920 5920 5920 5920 5920 5920 5919 5919 5919 5919 5919 5918 5917 5916 5916 5915 5913 5912 5910 5909 5908 5907 5906 5905 5905 5904 5902 5901 5900 5898 5896 5894 5893 5891 5890 5888 5886 5884 5881 5879 5877 5875 5872 5870 5868 5866 5863 5861 5858 5856 5854 5851 5849 5846 5844 5842 5840 5837 5835 5832 5831 5829 5827 5826 5825 5823 5822 5823 5823 5823 5823 5822 5823 5825 5824
5918 5918 5919 5919 5919 5919 5918 5918 5918 5917 5917 5918 5918 5917 5917 5917 5917 5917 5917 5916 5916 5916 5915 5914 5913 5912 5911 5909 5908 5907 5906 5904 5903 5903 5902 5901 5899 5898 5896 5895 5893 5891 5890 5888 5886 5884 5882 5880 5878 5875 5873 5871 5869 5866 5864 5862 5859 5857 5854 5852 5849 5847 5844 5842 5839 5837 5834 5832 5829 5827 5825 5823 5821 5820 5818 5817 5816 5816 5816 5816 5817 5817 5817 5818 5818
5915 5915 5916 5916 5917 5917 5916 5916 5916 5915 5915 5915 5915 5915 5914 5914 5914 5914 5914 5913 5913 5913 5912 5911 5910 5909 5908 5907 5906 5904 5903 5902 5901 5900 5899 5898 5896 5895 5893 5891 5889 5888 5886 5885 5883 5881 5879 5877 5875 5872 5870 5867 5865 5862 5860 5858 5855 5852 5850 5847 5844 5842 5839 5837 5834 5832 5829 5826 5823 5821 5819 5817 5815 5813 5812 5810 5809 5809 5809 5809 5810 5810 5811 5812 5812
5913 5913 5913 5913 5914 5915 5915 5914 5913 5912 5912 5912 5912 5912 5911 5911 5911 5911 5911 5910 5910 5910 5910 5909 5908 5907 5906 5904 5903 5902 5900 5899 5898 5897 5896 5894 5893 5891 5890 5888 5886 5884 5883 5881 5879 5877 5875 5873 5871 5869 5867 5864 5861 5859 5856 5853 5850 5848 5845 5842 5839 5836 5834 5832 5829 5826 5823 5821 5818 5815 5813 5811 5810 5808 5806 5805 5803 5802 5802 5802 5802 5802 5804 5805 5806
5910 5911 5911 5911 5912 5913 5913 5912 5911 5910 5910 5910 5910 5909 5908 5908 5908 5908 5908 5907 5907 5907 5907 5906 5905 5904 5903 5902 5901 5899 5898 5896 5895 5894 5893 5891 5890 5888 5886 5884 5883 5881 5879 5878 5876 5874 5872 5870 5868 5865 5863 5861 5858 5855 5852 5849 5846 5843 5840 5838 5835 5832 5829 5826 5823 5820 5817 5815 5812 5809 5807 5806 5805 5803 5801 5799 5798 5797 5795 5795 5795 5795 5796 5798 5799
5907 5908 5909 5909 5910 5911 5911 5910 5909 5908 5908 5908 5907 5906 5906 5905 5905 5905 5905 5904 5904 5904 5904 5903 5903 5902 5900 5899 5898 5896 5895 5894 5892 5891 5890 5888 5886 5885 5883 5881 5879 5878 5876 5874 5872 5870 5868 5866 5864 5862 5859 5857 5854 5851 5848 5845 5842 5839 5836 5833 5831 5828 5825 5821 5818 5815 5812 5809 5806 5803 5802 5801 5799 5798 5796 5794 5793 5791 5789 5788 5788 5788 5788 5790 5791
5905 5905 5906 5907 5907 5908 5908 5908 5907 5906 5905 5905 5905 5904 5904 5903 5902 5903 5902 5901 5901 5901 5901 5900 5900 5899 5897 5895 5894 5893 5891 5890 5889 5888 5886 5884 5883 5881 5880 5878 5876 5874 5872 5870 5869 5867 5865 5863 5860 5858 5855 5852 5849 5846 5843 5840 5838 5835 5832 5829 5826 5823 5820 5817 5813 5810 5807 5804 5801 5798 5796 5795 5794 5792 5790 5789 5787 5786 5784 5782 5781 5781 5781 5783 5783
5903 5902 5903 5904 5905 5905 5905 5905 5904 5904 5903 5902 5902 5902 5901 5900 5900 5900 5900 5899 5898 5898 5898 5898 5897 5896 5894 5892 5891 5889 5888 5887 5886 5884 5882 5881 5879 5878 5876 5874 5872 5870 5868 5866 5865 5863 5861 5859 5856 5853 5850 5847 5844 5842 5839 5836 5833 5830 5827 5824 5821 5818 5815 5811 5808 5805 5802 5799 5796 5793 5791 5789 5788 5786 5784 5783 5782 5780 5778 5777 5776 5776 5775 5776 5777
5902 5901 5901 5902 5902 5903 5902 5901 5901 5901 5900 5900 5899 5899 5899 5898 5897 5897 5897 5896 5895 5894 5894 5894 5894 5892 5891 5889 5887 5886 5885 5884 5882 5880 5879 5877 5875 5874 5873 5871 5869 5867 5865 5862 5860 5858 5856 5854 5851 5848 5846 5843 5840 5837 5834 5832 5828 5825 5822 5819 5816 5813 5810 5806 5802 5799 5796 5794 5791 5788 5786 5785 5782 5780 5778 5777 5776 5775 5773 5772 5771 5770 5769 5769 5770
5899 5899 5899 5899 5899 5899 5899 5898 5898 5898 5898 5897 5897 5896 5896 5895 5895 5894 5894 5893 5892 5892 5891 5891 5890 5889 5887 5885 5883 5882 5881 5880 5878 5877 5875 5873 5872 5871 5869 5867 5865 5863 5861 5859 5856 5854 5852 5849 5847 5844 5841 5839 5836 5832 5830 5827 5824 5821 5817 5814 5811 5808 5805 5801 5797 5794 5792 5789 5787 5784 5782 5780 5778 5775 5773 5772 5772 5770 5769 5767 5766 5765 5765 5764 5764
5896 5896 5896 5896 5897 5896 5896 5896 5896 5896 5895 5895 5894 5893 5892 5892 5892 5891 5891 5890 5889 5889 5888 5887 5887 5885 5883 5881 5879 5878 5877 5876 5875 5874 5872 5870 5869 5867 5866 5864 5862 5859 5857 5855 5853 5851 5848 5845 5842 5839 5836 5833 5831 5828 5825 5822 5819 5816 5813 5809 5806 5803 5800 5796 5793 5790 5787 5784 5782 5780 5777 5776 5773 5771 5769 5768 5768 5767 5765 5764 5762 5761 5760 5759 5758
5892 5893 5894 5894 5894 5894 5893 5893 5893 5893 5893 5892 5891 5890 5889 5889 5888 5888 5888 5887 5886 5885 5885 5884 5883 5881 5879 5877 5875 5874 5873 5872 5872 5870 5869 5867 5865 5864 5862 5860 5858 5856 5853 5851 5849 5847 5844 5841 5837 5834 5831 5829 5827 5824 5821 5818 5814 5811 5808 5805 5801 5798 5795 5792 5789 5786 5783 5780 5778 5775 5773 5771 5769 5767 5765 5764 5764 5763 5761 5759 5758 5757 5756 5755 5753
5888 5889 5891 5892 5891 5891 5890 5889 5889 5889 5889 5888 5887 5886 5885 5885 5885 5885 5884 5883 5883 5882 5882 5880 5878 5876 5874 5872 5871 5871 5870 5869 5868 5866 5865 5863 5862 5860 5858 5856 5854 5851 5849 5846 5844 5841 5839 5836 5833 5830 5828 5825 5822 5819 5816 5813 5810 5807 5804 5800 5797 5793 5790 5787 5784 5782 5779 5776 5774 5771 5769 5767 5765 5763 5762 5761 5760 5759 5757 5755 5754 5752 5751 5750 5748
5885 5886 5887 5888 5888 5888 5887 5886 5885 5885 5885 5884 5884 5882 5881 5882 5882 5882 5881 5880 5879 5879 5878 5876 5874 5872 5870 5868 5868 5868 5867 5865 5864 5862 5861 5860 5858 5856 5854 5851 5848 5846 5843 5841 5839 5836 5834 5831 5828 5826 5823 5820 5817 5815 5812 5809 5806 5802 5799 5796 5793 5789 5786 5783 5780 5777 5775 5772 5770 5767 5765 5763 5761 5760 5759 5758 5756 5754 5753 5751 5749 5747 5746 5745 5743
5882 5882 5884 5885 5885 5885 5884 5883 5882 5881 5881 5881 5880 5879 5878 5877 5878 5879 5879 5877 5876 5875 5874 5872 5871 5869 5867 5865 5865 5865 5863 5862 5860 5859 5858 5856 5854 5852 5849 5846 5844 5841 5839 5836 5834 5832 5829 5826 5823 5821 5818 5816 5813 5811 5808 5805 5802 5799 5795 5792 5789 5785 5782 5779 5776 5773 5771 5768 5766 5764 5762 5760 5758 5756 5755 5753 5752 5750 5749 5747 5744 5742 5741 5739 5738
5881 5880 5880 5881 5882 5882 5881 5880 5879 5878 5878 5877 5876 5875 5874 5873 5873 5874 5875 5874 5872 5871 5870 5869 5868 5866 5864 5863 5862 5861 5860 5858 5857 5855 5854 5852 5850 5847 5844 5842 5839 5837 5834 5832 5830 5827 5824 5821 5819 5817 5814 5812 5809 5806 5804 5801 5798 5795 5792 5789 5785 5782 5779 5775 5772 5770 5767 5765 5763 5761 5759 5757 5755 5753 5750 5748 5747 5746 5745 5742 5739 5737 5735 5733 5732
5880 5879 5878 5878 5879 5879 5878 5877 5875 5874 5874 5873 5872 5871 5870 5869 5869 5870 5870 5869 5869 5868 5867 5865 5864 5862 5861 5860 5859 5857 5856 5854 5853 5852 5850 5848 5845 5843 5840 5837 5835 5832 5830 5827 5825 5823 5820 5817 5815 5812 5810 5807 5805 5802 5799 5796 5794 5791 5788 5785 5782 5778 5775 5772 5769 5766 5764 5761 5760 5758 5756 5753 5751 5749 5747 5744 5743 5741 5740 5738 5735 5732 5729 5727 5725
5876 5876 5875 5875 5875 5875 5875 5873 5872 5871 5870 5869 5869 5868 5867 5866 5866 5866 5865 5865 5865 5865 5863 5860 5858 5858 5858 5857 5856 5854 5852 5851 5849 5847 5846 5843 5841 5838 5835 5833 5831 5828 5826 5823 5821 5819 5816 5813 5811 5808 5806 5803 5800 5797 5795 5792 5790 5787 5784 5781 5778 5775 5772 5769 5766 5763 5761 5758 5756 5754 5752 5750 5747 5745 5743 5741 5739 5737 5735 5733 5730 5727 5724 5722 5720
5871 5871 5872 5872 5871 5870 5871 5870 5869 5867 5866 5866 5866 5865 5864 5864 5863 5862 5861 5859 5859 5859 5858 5855 5854 5854 5853 5852 5851 5850 5848 5847 5845 5843 5841 5839 5836 5834 5831 5829 5826 5824 5822 5819 5817 5814 5812 5809 5806 5804 5801 5798 5796 5793 5791 5788 5785 5782 5780 5777 5775 5771 5768 5765 5763 5760 5758 5755 5753 5751 5749 5746 5744 5742 5739 5737 5735 5734 5731 5729 5726 5722 5719 5716 5714
5866 5867 5868 5869 5868 5866 5866 5866 5865 5864 5863 5862 5862 5862 5861 5860 5859 5857 5855 5854 5853 5853 5852 5851 5851 5850 5849 5847 5846 5845 5844 5842 5841 5839 5836 5834 5831 5829 5827 5824 5822 5819 5817 5815 5812 5810 5807 5804 5802 5799 5797 5794 5791 5789 5787 5784 5781 5778 5776 5773 5770 5767 5765 5762 5759 5757 5755 5752 5750 5747 5745 5743 5741 5738 5736 5734 5732 5730 5728 5725 5721 5718 5714 5711 5707
5863 5863 5863 5865 5864 5862 5861 5861 5860 5860 5859 5859 5858 5858 5857 5856 5854 5852 5851 5850 5849 5848 5847 5847 5847 5846 5844 5843 5842 5840 5839 5838 5836 5834 5831 5829 5826 5824 5821 5819 5817 5814 5812 5810 5807 5805 5803 5800 5797 5795 5793 5790 5788 5785 5783 5780 5777 5774 5772 5770 5767 5764 5761 5758 5756 5753 5751 5749 5746 5744 5742 5739 5737 5735 5733 5731 5729 5727 5725 5721 5718 5714 5711 5706 5702
5861 5859 5858 5860 5860 5858 5857 5856 5856 5855 5854 5854 5854 5854 5852 5851 5849 5848 5847 5846 5846 5844 5843 5843 5843 5841 5840 5838 5837 5836 5835 5833 5831 5829 5827 5824 5821 5819 5816 5814 5811 5809 5807 5805 5802 5800 5798 5795 5793 5791 5789 5786 5784 5781 5778 5776 5773 5771 5769 5766 5763 5760 5757 5754 5752 5749 5747 5745 5743 5741 5739 5736 5734 5731 5730 5728 5726 5724 5721 5718 5715 5711 5707 5702 5698
5858 5855 5854 5855 5855 5854 5852 5852 5851 5851 5851 5850 5850 5849 5848 5847 5846 5844 5843 5842 5842 5841 5840 5839 5838 5837 5835 5834 5833 5832 5831 5829 5826 5824 5822 5819 5816 5813 5810 5808 5806 5804 5802 5800 5798 5795 5792 5790 5788 5786 5784 5782 5779 5777 5774 5772 5769 5767 5765 5763 5760 5757 5754 5751 5748 5746 5743 5741 5739 5737 5735 5733 5731 5728 5726 5725 5722 5720 5718 5715 5712 5708 5704 5700 5695
5855 5853 5851 5851 5851 5850 5848 5847 5847 5847 5846 5845 5844 5843 5842 5842 5842 5840 5839 5838 5838 5837 5836 5835 5833 5832 5831 5830 5829 5828 5826 5824 5822 5820 5817 5813 5810 5808 5805 5802 5800 5799 5797 5796 5793 5790 5787 5785 5783 5782 5780 5777 5775 5772 5769 5767 5765 5763 5762 5759 5756 5753 5750 5747 5744 5742 5739 5737 5735 5733 5732 5730 5727 5725 5723 5721 5719 5716 5714 5712 5709 5705 5701 5697 5693
5851 5849 5848 5848 5847 5847 5845 5843 5842 5842 5842 5840 5838 5837 5837 5837 5837 5836 5835 5834 5833 5833 5832 5830 5829 5828 5827 5826 5825 5824 5822 5820 5817 5815 5812 5808 5805 5802 5799 5797 5795 5793 5792 5791 5788 5785 5781 5779 5778 5777 5775 5773 5770 5767 5764 5762 5761 5759 5758 5755 5753 5749 5746 5743 5741 5738 5736 5733 5731 5729 5728 5726 5724 5722 5720 5717 5715 5713 5710 5708 5704 5701 5697 5694 5690
5847 5845 5844 5843 5842 5842 5841 5839 5838 5838 5837 5835 5832 5832 5832 5832 5832 5832 5831 5830 5830 5829 5828 5826 5825 5824 5823 5822 5821 5820 5817 5815 5812 5810 5807 5803 5800 5797 5794 5792 5790 5787 5786 5785 5783 5780 5776 5774 5773 5772 5771 5769 5765 5762 5760 5759 5757 5755 5753 5751 5749 5746 5743 5740 5737 5734 5732 5729 5727 5725 5723 5722 5720 5719 5717 5714 5711 5709 5706 5703 5700 5697 5694 5690 5687
5841 5840 5839 5838 5837 5836 5836 5835 5833 5832 5831 5829 5827 5827 5828 5828 5827 5827 5826 5826 5826 5825 5824 5823 5822 5821 5820 5819 5817 5815 5813 5811 5808 5806 5802 5798 5795 5792 5789 5786 5783 5781 5779 5779 5777 5774 5771 5769 5768 5767 5765 5764 5761 5758 5756 5754 5753 5751 5749 5747 5745 5742 5739 5736 5733 5731 5728 5726 5723 5721 5719 5718 5716 5715 5712 5710 5708 5706 5702 5699 5696 5693 5690 5687 5683
5836 5836 5834 5833 5831 5830 5830 5829 5827 5826 5826 5824 5823 5823 5823 5823 5822 5822 5822 5821 5821 5820 5820 5819 5818 5817 5816 5814 5812 5811 5809 5807 5805 5801 5797 5794 5791 5788 5784 5779 5776 5774 5773 5772 5769 5766 5765 5764 5763 5762 5760 5759 5756 5754 5752 5750 5749 5747 5745 5743 5741 5738 5735 5732 5729 5727 5725 5722 5720 5717 5716 5714 5713 5711 5708 5706 5705 5702 5699 5695 5692 5690 5687 5684 5680
5832 5831 5830 5829 5827 5825 5824 5822 5820 5820 5820 5819 5819 5818 5818 5817 5817 5816 5816 5816 5816 5815 5815 5814 5814 5812 5811 5809 5808 5807 5805 5804 5801 5797 5794 5791 5788 5784 5779 5774 5770 5768 5767 5763 5760 5759 5758 5758 5757 5756 5755 5753 5751 5749 5747 5745 5743 5742 5740 5738 5736 5733 5731 5728 5725 5723 5721 5719 5716 5714 5712 5711 5709 5707 5704 5702 5701 5699 5695 5692 5689 5686 5683 5680 5676
5829 5827 5826 5825 5823 5820 5817 5814 5812 5812 5813 5813 5813 5813 5812 5812 5811 5811 5811 5811 5811 5811 5810 5809 5809 5808 5806 5805 5804 5802 5801 5799 5797 5793 5789 5787 5784 5780 5777 5773 5769 5766 5761 5755 5753 5754 5754 5752 5751 5750 5749 5747 5745 5743 5741 5740 5738 5736 5735 5733 5731 5728 5726 5724 5721 5719 5717 5715 5713 5711 5709 5707 5706 5703 5700 5698 5697 5695 5692 5689 5685 5682 5679 5676 5672
5824 5823 5821 5820 5818 5814 5810 5805 5802 5803 5806 5807 5807 5808 5807 5807 5807 5806 5806 5806 5806 5805 5805 5804 5803 5802 5801 5799 5798 5796 5795 5795 5793 5789 5785 5781 5778 5776 5774 5771 5768 5766 5761 5754 5749 5749 5749 5746 5744 5744 5744 5742 5740 5737 5736 5734 5732 5731 5730 5728 5726 5723 5721 5719 5717 5715 5713 5711 5709 5708 5706 5704 5702 5700 5697 5695 5694 5691 5688 5686 5682 5679 5676 5673 5670
5817 5817 5816 5816 5814 5810 5807 5801 5795 5794 5799 5800 5800 5801 5802 5802 5802 5801 5801 5800 5799 5799 5799 5798 5797 5796 5794 5793 5791 5790 5790 5790 5789 5786 5782 5777 5773 5771 5768 5766 5764 5763 5761 5756 5750 5746 5743 5740 5738 5737 5737 5736 5735 5732 5730 5729 5727 5726 5725 5723 5721 5718 5716 5715 5713 5711 5709 5707 5706 5704 5702 5700 5698 5696 5694 5693 5691 5688 5686 5683 5680 5677 5674 5671 5667
5811 5811 5811 5812 5810 5808 5806 5802 5794 5789 5791 5794 5794 5795 5796 5797 5797 5796 5795 5794 5794 5793 5793 5792 5791 5790 5788 5787 5785 5785 5784 5784 5783 5782 5778 5774 5770 5767 5764 5761 5759 5757 5756 5754 5749 5744 5739 5734 5732 5732 5731 5730 5729 5728 5725 5724 5722 5721 5720 5718 5716 5714 5712 5710 5709 5707 5705 5704 5702 5700 5699 5697 5695 5693 5691 5690 5688 5685 5683 5680 5678 5675 5672 5669 5665
5806 5806 5806 5807 5806 5804 5803 5802 5796 5788 5785 5786 5787 5788 5790 5791 5791 5791 5790 5789 5788 5788 5787 5786 5785 5784 5783 5781 5780 5779 5779 5778 5776 5775 5773 5769 5766 5763 5759 5756 5753 5751 5749 5747 5745 5741 5736 5731 5727 5727 5726 5725 5724 5723 5721 5719 5717 5716 5715 5713 5711 5709 5707 5706 5704 5703 5701 5700 5698 5697 5695 5693 5692 5690 5688 5687 5685 5682 5680 5678 5675 5673 5670 5667 5664
5801 5801 5802 5802 5801 5799 5798 5800 5799 5791 5783 5780 5782 5784 5786 5786 5786 5785 5785 5783 5783 5783 5782 5781 5780 5779 5777 5776 5776 5775 5773 5772 5770 5768 5766 5764 5761 5757 5754 5751 5747 5744 5743 5740 5738 5735 5732 5728 5724 5722 5721 5720 5718 5716 5715 5714 5713 5712 5710 5708 5706 5704 5702 5701 5699 5698 5697 5695 5694 5693 5691 5690 5688 5686 5685 5683 5682 5680 5677 5675 5672 5670 5668 5665 5662
5795 5795 5796 5796 5796 5795 5794 5796 5795 5789 5781 5779 5780 5781 5781 5781 5781 5780 5779 5777 5777 5777 5776 5775 5774 5773 5772 5771 5771 5770 5768 5766 5764 5762 5759 5757 5754 5751 5747 5744 5741 5737 5736 5733 5730 5727 5724 5722 5719 5716 5715 5714 5712 5710 5709 5708 5708 5707 5705 5703 5701 5699 5697 5696 5695 5694 5693 5691 5690 5689 5688 5686 5685 5683 5682 5680 5678 5677 5674 5672 5670 5668 5666 5664 5660
5791 5791 5790 5789 5789 5790 5790 5791 5791 5785 5779 5777 5777 5776 5775 5775 5775 5774 5772 5771 5771 5771 5770 5769 5768 5768 5767 5766 5764 5763 5762 5760 5758 5756 5753 5749 5747 5744 5741 5738 5735 5731 5729 5727 5723 5720 5717 5714 5712 5710 5709 5708 5707 5705 5704 5702 5702 5701 5700 5698 5696 5693 5692 5691 5690 5690 5689 5687 5686 5685 5684 5683 5682 5680 5679 5677 5675 5674 5672 5670 5668 5666 5665 5662 5659
5787 5787 5786 5784 5783 5784 5784 5785 5785 5782 5777 5775 5773 5771 5770 5771 5770 5769 5768 5766 5765 5765 5764 5763 5762 5761 5760 5759 5758 5755 5754 5752 5750 5749 5746 5742 5739 5737 5734 5732 5729 5725 5723 5720 5717 5714 5711 5709 5707 5705 5704 5702 5701 5699 5698 5696 5695 5695 5694 5692 5690 5688 5687 5686 5686 5685 5684 5683 5683 5682 5680 5679 5679 5677 5676 5674 5673 5671 5669 5668 5666 5665 5663 5661 5658
5781 5782 5782 5780 5779 5778 5778 5777 5778 5776 5774 5771 5769 5767 5766 5767 5765 5764 5763 5761 5760 5759 5758 5756 5755 5754 5753 5752 5750 5749 5747 5745 5743 5741 5738 5735 5732 5729 5726 5724 5721 5718 5715 5713 5711 5708 5706 5703 5701 5700 5698 5696 5693 5692 5691 5690 5689 5689 5687 5685 5684 5683 5682 5682 5681 5680 5680 5679 5679 5678 5677 5676 5675 5674 5673 5671 5670 5669 5667 5666 5664 5663 5662 5660 5657